Regional Weather Roundup
Issued by NWS Newport/Morehead, NC

Current Version | Previous Version | Graphics & Text | Print | Product List | Glossary Off
Versions: 1 2 3 4 5 6 7 8 9 10 11 12 13 14 15 16 17 18 19 20 21 22 23 24 25 26 27 28 29 30 31 32 33 34 35 36 37 38 39 40 41 42 43 44 45 46 47 48 49 50
000 ASUS42 KMHX 052312 RWRMHX WEATHER ROUNDUP FOR EASTERN NORTH CAROLINA NATIONAL WEATHER SERVICE NEWPORT/MOREHEAD CITY NC 600 PM EST THU MAR 05 2015 NOTE: "FAIR" INDICATES FEW OR NO CLOUDS BELOW 12,000 FEET WITH NO SIGNIFICANT WEATHER AND/OR OBSTRUCTIONS TO VISIBILITY NCZ015>017-031-032-045>047-102-103-060000- NORTH COAST CITY SKY/WX TMP DP RH WIND PRES REMARKS EDENTON RAIN 35 34 95 NE7 30.09F ELIZABETH CITY HVY RAIN 36 34 93 N15 30.12F FOG KITTY HAWK RAIN 35 35 100 N12G20 30.09F MANTEO CLOUDY 35 34 96 NE20G36 30.10F $$ NCZ045>047-081-094-103-104-060000- CENTRAL COAST CITY SKY/WX TMP DP RH WIND PRES REMARKS FRISCO CLOUDY 37 37 100 N18G37 30.06R SWANQUARTER N/A 36 N/A N/A VRB15G24 30.09R $$ NCZ095-097-098-100-101-060000- SOUTHERN COAST CITY SKY/WX TMP DP RH WIND PRES REMARKS BEAUFORT LGT RAIN 40 39 97 N26G37 30.11R FOG CEDAR ISLAND N/A 39 N/A N/A N26G37 30.15R JACKSONVILLE CLOUDY 41 36 82 N22G32 30.12R PINEY ISLAND N/A N/A N/A N/A MISG 30.10R WILMINGTON CLOUDY 42 37 82 N20G30 30.06S $$ NCZ011>013-027>030-043-044-078>080-089-090>093-098-060000- COASTAL PLAIN CITY SKY/WX TMP DP RH WIND PRES REMARKS AHOSKIE LGT RAIN 34 32 94 N13G20 30.14R CLINTON RAIN 39 39 100 NE6 30.06R ELIZABETHTOWN LGT RAIN 39 38 97 E5 30.04S GOLDSBORO LGT RAIN 37 37 100 N9 30.07R GREENVILLE LGT RAIN 36 36 100 NE6 30.11R HAVELOCK DRIZZLE 39 32 76 N20G36 30.13R KENANSVILLE LGT RAIN 38 37 98 E5 30.05S KINSTON MIX PCPN 37 36 93 E8 30.07F NEW BERN LGT RAIN 38 35 89 NE17G30 30.12R FOG RICHLANDS CLOUDY 37 34 87 NE25 30.06F ROCKY MOUNT LGT RAIN 37 35 92 N14 30.13R WASHINGTON RAIN 36 34 94 E9 30.06F WHITEVILLE LGT RAIN 42 39 92 NE14G22 30.01F $$ AMZ130-135-150-152-154-156-158-170-250-252-270-ANZ085-086-088-633-658-670-060000- MARINE OBSERVATIONS STATION/POSITION TIME TEMP WIND PRES WAVE SWELL AIR SEA DIR/SP/G HT/PER HT/PER (UTC) (F) (DEG/KT/KT) (MB) (FT/S) (FT/S) CHESAPEAKE LIGHT 2200 34 20/ 23/ 26 1019.9 64 E VA BEACH 2250 42 52 360/ 31/ 37 1018.4 10/ 8 3/12 DUCK 2200 34 36 10/ 23/ 28 1018.0 2 E DUCK 2211 36 N/A 8/ 7 2/11 10 NE DUCK 2222 38 N/A 9/ 7 2/11 OREGON INLET 2200 35 48 350/ 20/ 30 1017.9 HATTERAS CG 2200 52 10/ 29/ 35 1016.4 CAPE LOOKOUT 2300 360/ 23/ 30 1018.4 BEAUFORT LAB 2200 42 49 20/ 17/ 24 1015.2 27 SE WRIGHTSVLE NOT AVBL 5 SE WRIGHTSVLE NOT AVBL 225 S CAPE HAT 2250 74 73 230/ 21/ 25 1018.6 7/ 7 3/10 41 SE CHARLESTON 2250 70 68 200/ 19/ 23 1014.0 6/ 7 2/10 $$

USA.gov is the U.S. government's official web portal to all federal, state and local government web resources and services.